Find Starlink 34087

NORAD ID: 64024 Int'l Des: 2025-102 Owner: SPXS Country: US Constellation: starlink operational
LEOCIRCULAR

Live Position

Loading 3D Globe...

About Starlink 34087

Description loading...

Upcoming Passes

Passes for default location (London). Set your location on the main map for personalized predictions.

Altitude History

Loading altitude history...

Two-Line Element Set

1 64024U 25102C 26104.19895348 .00004426 00000-0 37835-3 0 9991
2 64024 70.0009 24.8192 0003205 273.3017 86.7775 14.98343881 51165
Epoch: Apr 14, 2026 • Age: 8 hours

Current Status

Altitude 574.6 km
Velocity 7.58 km/s
Sub-Earth Point 18.80°N, 4.79°W
Launch Date May 16, 2025
Age 0.9 years
Type internet

Technical Details

Classification Payload
Mass 575.00 kg
Dry Mass 530.00 kg
Total Mass 575.00 kg
Length 0.30 m
Diameter 4.10 m
Span 29.00 m
Shape Box + pan
Manufacturer SPXS
Bus Type Starlink V2MO
Phase Status In Orbit
Owner/State SPXS/US

Most Searched